[[{"header":{"parameterUnit":"m.s-1","parameterCategory":1,"la1":30.2992,"la2":30.254,"lo1":-89.0895,"lo2":-89.0443,"dy":0.0025,"dx":0.0025,"nx":19,"ny":19,"refTime":"2026-05-08T09:00:00:Z","depth":0,"parameterNumber":2,"parameterNumberName":"U-component_of_WINDS"},"data":[0,0,0,-1.0232,-1.0234,-1.0329,-1.033,-1.0453,-1.0455,0,0,0,0,0,0,0,0,0,0,0,-1.0202,-1.0203,-1.0231,-1.0234,-1.0329,-1.033,-1.0453,-1.0455,0,0,0,0,0,0,0,0,0,0,0,-1.0202,-1.0203,-1.0204,-1.0234,-1.0329,-1.033,-1.0453,-1.0381,0,0,0,0,0,0,0,0,0,0,-1.0288,-1.0259,-1.0203,-1.0204,-1.0235,-1.0329,-1.033,-1.0377,-1.0385,-1.041,0,-1.043,0,-1.0444,-1.0463,-1.0463,0,0,0,-1.0235,-1.0253,-1.0279,-1.0204,-1.0236,-1.0329,-1.0287,-1.0382,-1.0391,-1.0421,-1.0432,-1.0437,-1.0446,-1.0463,-1.0464,-1.0599,-1.0599,0,0,-1.023,-1.022,-1.0273,-1.0285,-1.0268,-1.0283,-1.0289,-1.0387,-1.04,-1.0432,-1.0439,-1.0448,-1.0464,-1.0465,-1.0598,-1.0599,0,0,0,-1.0214,-1.0216,-1.024,-1.028,-1.0297,-1.0286,-1.0293,-1.0395,-1.0404,-1.0441,-1.045,-1.0465,-1.0467,-1.0597,-1.0598,-1.0616,0,0,0,-1.0211,-1.0206,-1.0237,-1.0232,-1.0295,-1.0347,-1.0299,-1.0397,-1.0408,-1.0449,-1.0465,-1.0468,-1.0597,-1.0598,-1.0615,-1.0628,0,0,0,-1.0197,-1.0205,-1.0218,-1.0231,-1.0272,-1.0345,-1.036,-1.04,-1.0414,-1.0463,-1.0468,-1.0596,-1.0598,-1.0613,-1.0625,-1.0661,0,0,0,-1.0179,-1.0233,-1.0218,-1.0282,-1.0271,-1.0355,-1.0359,-1.0423,-1.0467,-1.0466,-1.0597,-1.0598,-1.0612,-1.0623,-1.0659,-1.069,-1.0702,0,0,-1.0242,-1.0241,-1.0279,-1.0268,-1.0352,-1.0341,-1.0429,-1.048,-1.0495,-1.0564,-1.0567,-1.0615,-1.0625,-1.066,-1.0767,-1.0776,0,0,0,-1.0296,-1.0324,-1.0348,-1.0389,-1.0428,-1.0463,-1.0502,-1.0521,-1.0579,-1.0527,-1.0637,-1.0643,-1.0665,-1.068,-1.0688,-1.0708,-1.0604,-1.0604,-1.0604,-1.0373,-1.0387,-1.0452,-1.0478,-1.0518,-1.0556,-1.059,-1.0623,-1.0627,-1.0653,-1.0674,-1.0736,-1.0754,-1.076,-1.078,-1.069,-1.069,-1.069,-1.069,-1.0468,-1.051,-1.0513,-1.0577,-1.0592,-1.0648,-1.0687,-1.0688,-1.0742,-1.0721,-1.0741,-1.0719,-1.0769,-1.0788,-1.0692,-1.0691,-1.0691,-1.0691,-1.0691,-1.0521,-1.0544,-1.0565,-1.0625,-1.067,-1.0695,-1.0746,-1.0759,-1.0771,-1.079,-1.0815,-1.0815,-1.0817,-1.08,-1.0801,-1.0801,-1.0801,-1.0801,-1.0801,-1.0569,-1.0592,-1.0633,-1.0678,-1.0706,-1.0744,-1.0783,-1.0811,-1.0846,-1.0851,-1.0851,-1.0854,-1.077,-1.075,-1.0805,-1.0804,-1.0804,-1.0803,-1.0803,-1.0664,-1.0644,-1.0708,-1.0736,-1.079,-1.0835,-1.0848,-1.0905,-1.093,-1.0956,-1.0953,-1.0889,-1.0889,-1.0883,-1.0867,-1.0949,-1.0949,-1.0949,-1.0949,-1.0711,-1.0711,-1.0779,-1.0823,-1.0867,-1.0885,-1.0959,-1.0989,-1.1018,-1.1035,-1.1024,-1.1003,-1.0996,-1.1001,-1.0992,-1.0977,-1.1085,-1.1085,-1.1086,-1.0771,-1.0776,-1.0836,-1.0861,-1.0904,-1.0942,-1.1012,-1.1063,-1.1092,-1.1091,-1.1049,-1.1043,-1.1009,-1.0996,-1.0998,-1.0984,-1.0957,0,0]},{"header":{"parameterUnit":"m.s-1","parameterCategory":1,"la1":30.2992,"la2":30.254,"lo1":-89.0895,"lo2":-89.0443,"dy":0.0025,"dx":0.0025,"nx":19,"ny":19,"refTime":"2026-05-08T09:00:00:Z","depth":0,"parameterNumber":3,"parameterNumberName":"V-component_of_WINDS"},"data":[0,0,0,-4.6227,-4.623,-4.6346,-4.6346,-4.6494,-4.6495,0,0,0,0,0,0,0,0,0,0,0,-4.6195,-4.6196,-4.6227,-4.623,-4.6346,-4.6347,-4.6493,-4.6495,0,0,0,0,0,0,0,0,0,0,0,-4.6195,-4.6196,-4.6197,-4.6231,-4.6346,-4.6347,-4.6493,-4.6405,0,0,0,0,0,0,0,0,0,0,-4.6292,-4.6265,-4.6196,-4.6197,-4.6231,-4.6346,-4.6347,-4.6401,-4.6411,-4.6441,0,-4.6472,0,-4.6486,-4.6505,-4.6505,0,0,0,-4.6228,-4.6257,-4.6287,-4.6198,-4.6232,-4.6346,-4.6293,-4.6406,-4.6417,-4.6454,-4.6474,-4.6479,-4.6489,-4.6506,-4.6507,-4.67,-4.6701,0,0,-4.6221,-4.6216,-4.628,-4.6294,-4.628,-4.6289,-4.6297,-4.6413,-4.6433,-4.6474,-4.6483,-4.6491,-4.6507,-4.6508,-4.6699,-4.67,0,0,0,-4.6205,-4.6212,-4.6239,-4.6288,-4.631,-4.6293,-4.6301,-4.6428,-4.6437,-4.6484,-4.6493,-4.6508,-4.651,-4.6698,-4.67,-4.6747,0,0,0,-4.6201,-4.6202,-4.6236,-4.6234,-4.6308,-4.6371,-4.6313,-4.6429,-4.6442,-4.6492,-4.6508,-4.6511,-4.6697,-4.6699,-4.6744,-4.677,0,0,0,-4.6187,-4.62,-4.6218,-4.6233,-4.6284,-4.6369,-4.6385,-4.6432,-4.6448,-4.6506,-4.6511,-4.6696,-4.6699,-4.674,-4.6765,-4.6821,0,0,0,-4.6169,-4.6256,-4.6219,-4.6319,-4.6283,-4.6398,-4.6384,-4.647,-4.6525,-4.6509,-4.6697,-4.6699,-4.6739,-4.6761,-4.6818,-4.6868,-4.6889,0,0,-4.6276,-4.6269,-4.6328,-4.6298,-4.642,-4.6381,-4.6508,-4.6562,-4.657,-4.6656,-4.666,-4.6745,-4.6764,-4.682,-4.7005,-4.7021,0,0,0,-4.636,-4.6403,-4.6436,-4.6491,-4.6536,-4.6577,-4.6612,-4.6632,-4.6706,-4.6614,-4.678,-4.6792,-4.6825,-4.6849,-4.6863,-4.6892,-4.671,-4.671,-4.671,-4.6502,-4.6512,-4.6611,-4.6635,-4.6687,-4.6725,-4.6768,-4.68,-4.6791,-4.683,-4.6856,-4.6967,-4.6996,-4.7006,-4.7037,-4.6883,-4.6883,-4.6883,-4.6883,-4.6659,-4.6722,-4.6712,-4.6804,-4.6813,-4.6889,-4.6928,-4.692,-4.6991,-4.6948,-4.6977,-4.693,-4.7024,-4.7051,-4.6887,-4.6886,-4.6886,-4.6885,-4.6885,-4.6754,-4.6786,-4.6812,-4.6893,-4.6954,-4.6974,-4.7045,-4.7048,-4.7052,-4.7081,-4.711,-4.7109,-4.7109,-4.7095,-4.7095,-4.7095,-4.7096,-4.7096,-4.7096,-4.6843,-4.687,-4.6931,-4.6989,-4.7026,-4.7074,-4.7113,-4.7148,-4.7188,-4.7185,-4.7185,-4.7173,-4.7032,-4.6997,-4.7102,-4.7101,-4.71,-4.71,-4.7099,-4.7,-4.6966,-4.706,-4.7098,-4.7166,-4.7227,-4.7232,-4.7304,-4.7333,-4.7368,-4.735,-4.7245,-4.7237,-4.7226,-4.7197,-4.7348,-4.7348,-4.7348,-4.7348,-4.7081,-4.7078,-4.7177,-4.7236,-4.7295,-4.731,-4.7414,-4.7446,-4.7472,-4.749,-4.7469,-4.7431,-4.7419,-4.7418,-4.7403,-4.7376,-4.7568,-4.7569,-4.7569,-4.7179,-4.7183,-4.7272,-4.7301,-4.7356,-4.7402,-4.7501,-4.7567,-4.7589,-4.7578,-4.7505,-4.7496,-4.7434,-4.7413,-4.74,-4.7377,-4.7327,0,0]}]]